Weather History for Washington, MO

Change the Weather History Date:

Thursday, November 1, 2012

  Actual Average (KSTL) Record (KSTL)
Temperature  
Mean Temperature 48 °F 53 °F  
Max Temperature 66 °F 63 °F 86 °F (1937)
Min Temperature 30 °F 44 °F 26 °F (1954)
Degree Days  
Heating Degree Days 17 12  
Month to date heating degree days 12  
Since 1 July heating degree days 288  
Cooling Degree Days 0 0  
Month to date cooling degree days 0  
Year to date cooling degree days 1642  
Moisture  
Dew Point 34 °F    
Average Humidity 67    
Maximum Humidity 87    
Minimum Humidity 37    
Precipitation  
Precipitation 0.00 in 0.12 in 2.87 in (1972)
Month to date precipitation 0.12  
Year to date precipitation 34.33  
Snow  
Snow - 0.00 in T in (1991)
Month to date snowfall 0.0  
Since 1 July snowfall 0.0  
Since 1 September snowfall 0.0  
Snow Depth -    
Sea Level Pressure  
Sea Level Pressure 29.95 in    
Wind  
Wind Speed 0 mph ()    
Max Wind Speed 5 mph    
Max Gust Speed -    
Visibility 9.7 miles    
Events      
T = Trace of Precipitation, MM = Missing Value Source: Averaged Metar Reports

Daily Weather History Graph

Daily Weather History Graph

Search for Another Location

Airport:

Trip Planner

Search our weather history database for the weather conditions in past years. The results will help you decide how hot, cold, wet, or windy it might be!

Date:

Astronomy

Nov. 01, 2012 Rise Set
Actual Time 7:31 AM CDT 6:03 PM CDT
Civil Twilight 7:03 AM CDT 6:30 PM CDT
Nautical Twilight 6:32 AM CDT 7:02 PM CDT
Astronomical Twilight 6:01 AM CDT 7:33 PM CDT
Moon 8:02 PM CDT 10:02 AM CDT
Length of Visible Light 11h 27m
Length of Day
10h 32m
Waning Gibbous, 93% of the Moon is Illuminated
Nov 1
Waning Gibbous
Nov 6
Last Quarter
Nov 13
New
Nov 20
First Quarter
Nov 28
Full

Hourly Weather History & Observations

Time (CDT) Temp. Windchill Dew Point Humidity Pressure Visibility Wind Dir Wind Speed Gust Speed Precip Events Conditions
12:15 AM 33.8 °F - 26.6 °F 75% 30.00 in 10.0 mi Calm Calm - N/A   Clear
12:35 AM 33.8 °F - 26.6 °F 75% 30.00 in 10.0 mi Calm Calm - N/A   Clear
12:55 AM 35.6 °F - 26.6 °F 70% 29.99 in 10.0 mi Calm Calm - N/A   Clear
1:15 AM 33.8 °F - 26.6 °F 75% 29.99 in 10.0 mi Calm Calm - N/A   Clear
1:35 AM 32.0 °F - 26.6 °F 80% 30.00 in 10.0 mi Calm Calm - N/A   Clear
2:15 AM 32.0 °F - 26.6 °F 80% 30.00 in 10.0 mi Calm Calm - N/A   Partly Cloudy
2:35 AM 32.0 °F - 24.8 °F 75% 30.00 in 10.0 mi Calm Calm - N/A   Clear
2:55 AM 32.0 °F - 26.6 °F 80% 30.00 in 10.0 mi Calm Calm - N/A   Clear
3:15 AM 32.0 °F - 26.6 °F 80% 30.00 in 10.0 mi Calm Calm - N/A   Clear
3:35 AM 30.2 °F - 26.6 °F 86% 30.00 in 10.0 mi Calm Calm - N/A   Clear
3:55 AM 32.0 °F - 24.8 °F 75% 30.00 in 10.0 mi Calm Calm - N/A   Partly Cloudy
4:15 AM 32.0 °F - 24.8 °F 75% 29.99 in 10.0 mi Calm Calm - N/A   Partly Cloudy
4:35 AM 32.0 °F - 26.6 °F 80% 29.99 in 10.0 mi Calm Calm - N/A   Partly Cloudy
5:15 AM 30.2 °F - 26.6 °F 86% 30.00 in 10.0 mi Calm Calm - N/A   Scattered Clouds
5:35 AM 30.2 °F - 26.6 °F 86% 30.01 in 10.0 mi Calm Calm - N/A   Partly Cloudy
5:55 AM 30.2 °F - 24.8 °F 80% 30.02 in 10.0 mi Calm Calm - N/A   Partly Cloudy
6:15 AM 30.2 °F - 26.6 °F 86% 30.01 in 10.0 mi Calm Calm - N/A   Partly Cloudy
6:35 AM 32.0 °F - 26.6 °F 80% 30.01 in 10.0 mi Calm Calm - N/A   Partly Cloudy
6:55 AM 32.0 °F - 26.6 °F 80% 30.01 in 10.0 mi Calm Calm - N/A   Partly Cloudy
7:15 AM 32.0 °F - 26.6 °F 80% 30.01 in 10.0 mi Calm Calm - N/A   Partly Cloudy
7:35 AM 32.0 °F - 28.4 °F 87% 30.01 in 10.0 mi Calm Calm - N/A   Clear
8:35 AM 35.6 °F - 30.2 °F 81% 30.02 in 10.0 mi Calm Calm - N/A   Scattered Clouds
8:55 AM 37.4 °F - 32.0 °F 81% 30.02 in 10.0 mi Calm Calm - N/A   Clear
9:15 AM 37.4 °F - 32.0 °F 81% 30.02 in 10.0 mi Calm Calm - N/A   Clear
9:35 AM 39.2 °F - 32.0 °F 75% 30.02 in 10.0 mi Calm Calm - N/A   Clear
9:55 AM 41.0 °F - 32.0 °F 70% 30.02 in 10.0 mi Calm Calm - N/A   Clear
10:15 AM 42.8 °F - 32.0 °F 66% 30.03 in 10.0 mi Calm Calm - N/A   Clear
10:35 AM 44.6 °F - 32.0 °F 61% 30.03 in 10.0 mi Calm Calm - N/A   Scattered Clouds
10:55 AM 46.4 °F - 33.8 °F 62% 30.03 in 10.0 mi Calm Calm - N/A   Mostly Cloudy
11:15 AM 48.2 °F - 35.6 °F 62% 30.02 in 10.0 mi Calm Calm - N/A   Mostly Cloudy
11:35 AM 50.0 °F - 35.6 °F 58% 30.01 in 10.0 mi Calm Calm - N/A   Scattered Clouds
11:55 AM 51.8 °F - 37.4 °F 58% 30.00 in 10.0 mi Calm Calm - N/A   Mostly Cloudy
12:15 PM 53.6 °F - 35.6 °F 51% 29.99 in 10.0 mi Calm Calm - N/A   Mostly Cloudy
12:35 PM 55.4 °F - 35.6 °F 47% 29.98 in 5.0 mi Calm Calm - N/A   Haze
1:15 PM 57.2 °F - 37.4 °F 48% 29.96 in 5.0 mi Calm Calm - N/A   Haze
1:35 PM 59.0 °F - 37.4 °F 45% 29.94 in 3.0 mi Calm Calm - N/A   Haze
2:15 PM 59.0 °F - 37.4 °F 45% 29.93 in 8.0 mi Calm Calm - N/A   Scattered Clouds
2:35 PM 62.6 °F - 35.6 °F 37% 29.92 in 10.0 mi Calm Calm - N/A   Mostly Cloudy
2:55 PM 62.6 °F - 35.6 °F 37% 29.90 in 10.0 mi WSW 4.6 mph - N/A   Mostly Cloudy
3:15 PM 62.6 °F - 37.4 °F 39% 29.90 in 10.0 mi Calm Calm - N/A   Mostly Cloudy
3:35 PM 64.4 °F - 37.4 °F 37% 29.89 in 10.0 mi Calm Calm - N/A   Overcast
3:55 PM 64.4 °F - 37.4 °F 37% 29.88 in 10.0 mi Calm Calm - N/A   Overcast
4:15 PM 66.2 °F - 39.2 °F 37% 29.87 in 10.0 mi SW 3.5 mph - N/A   Scattered Clouds
4:35 PM 66.2 °F - 39.2 °F 37% 29.87 in 10.0 mi WSW 4.6 mph - N/A   Clear
5:15 PM 66.2 °F - 39.2 °F 37% 29.86 in 10.0 mi Calm Calm - N/A   Clear
5:35 PM 64.4 °F - 41.0 °F 42% 29.86 in 10.0 mi Calm Calm - N/A   Scattered Clouds
5:55 PM 64.4 °F - 39.2 °F 40% 29.86 in 10.0 mi Calm Calm - N/A   Scattered Clouds
6:15 PM 62.6 °F - 39.2 °F 42% 29.87 in 10.0 mi Calm Calm - N/A   Clear
6:35 PM 57.2 °F - 41.0 °F 55% 29.87 in 10.0 mi Calm Calm - N/A   Clear
6:55 PM 55.4 °F - 41.0 °F 58% 29.88 in 10.0 mi Calm Calm - N/A   Clear
7:15 PM 53.6 °F - 41.0 °F 62% 29.88 in 10.0 mi Calm Calm - N/A   Clear
7:35 PM 50.0 °F - 41.0 °F 71% 29.87 in 10.0 mi Calm Calm - N/A   Clear
7:55 PM 50.0 °F - 41.0 °F 71% 29.87 in 10.0 mi Calm Calm - N/A   Partly Cloudy
8:15 PM 51.8 °F - 41.0 °F 67% 29.87 in 10.0 mi Calm Calm - N/A   Scattered Clouds
8:35 PM 48.2 °F - 41.0 °F 76% 29.87 in 10.0 mi Calm Calm - N/A   Scattered Clouds
8:55 PM 46.4 °F - 39.2 °F 76% 29.87 in 10.0 mi Calm Calm - N/A   Scattered Clouds
9:15 PM 46.4 °F - 39.2 °F 76% 29.87 in 10.0 mi Calm Calm - N/A   Scattered Clouds
9:35 PM 46.4 °F - 39.2 °F 76% 29.88 in 10.0 mi Calm Calm - N/A   Scattered Clouds
9:55 PM 44.6 °F 43.1 °F 39.2 °F 81% 29.88 in 10.0 mi NNW 3.5 mph - N/A   Mostly Cloudy
10:15 PM 44.6 °F - 39.2 °F 81% 29.88 in 10.0 mi Calm Calm - N/A   Mostly Cloudy
10:35 PM 44.6 °F - 39.2 °F 81% 29.88 in 10.0 mi Calm Calm - N/A   Mostly Cloudy
10:55 PM 44.6 °F - 39.2 °F 81% 29.89 in 10.0 mi Calm Calm - N/A   Mostly Cloudy
11:15 PM 44.6 °F - 39.2 °F 81% 29.89 in 10.0 mi Calm Calm - N/A   Overcast
11:35 PM 44.6 °F - 39.2 °F 81% 29.89 in 10.0 mi Calm Calm - N/A   Mostly Cloudy
11:55 PM 41.0 °F - 37.4 °F 87% 29.90 in 10.0 mi Calm Calm - N/A   Mostly Cloudy